AirNav   Everest Fuels
 
 454 users online  

KBNG Banning Municipal Airport
Banning, California, USA

GOING TO BANNING?


FAA INFORMATION EFFECTIVE 10 SEPTEMBER 2020

Location

FAA Identifier: BNG
Lat/Long: 33-55-21.2000N 116-51-03.5000W
33-55.353333N 116-51.058333W
33.9225556,-116.8509722
(estimated)
Elevation: 2222.4 ft. / 677.4 m (surveyed)
Variation: 14E (1985)
From city: 1 mile SE of BANNING, CA
Time zone: UTC -7 (UTC -8 during Standard Time)
Zip code: 92220

Airport Operations

Airport use: Open to the public
Activation date: 04/1940
Control tower: no
ARTCC: LOS ANGELES CENTER
FSS: RIVERSIDE FLIGHT SERVICE STATION
NOTAMs facility: RAL (NOTAM-D service available)
Attendance: MON-FRI 0900-1530
FOR ARPT ATTENDANT CALL (951) 922-3320.
Wind indicator: lighted
Segmented circle: yes
Lights: ACTVT MIRL RWY 08/26 - CTAF.
Beacon: white-green (lighted land airport)
Operates sunset to sunrise.

Airport Communications

CTAF/UNICOM: 122.8
WX AWOS-3: 134.625 (951-922-4674)
WX AWOS-3PT at HMT (14 nm SW): 118.375 (951-925-6886)
WX ASOS at PSP (18 nm E): PHONE 760-322-7597

Nearby radio navigation aids

VOR radial/distance  VOR name  Freq  Var
HDFr048/(18.8)HOMELAND VOR113.4014E
PSPr266/21.2PALM SPRINGS VORTAC115.5013E
RALr080/(29.9)RIVERSIDE VOR112.4014E
PDZr075/33.8PARADISE VORTAC112.2015E
TRMr284/38.7THERMAL VORTAC116.2013E

Airport Services

Fuel available: 100LL
FUEL AVBL WITH 24 HR SELF SVC CREDIT CARD. FUEL APN NOT LEVEL AND ACFT MAY NOT FILL COMPLETELY.
Parking: tiedowns
Airframe service: NONE
Powerplant service: NONE
Bottled oxygen: NONE
Bulk oxygen: NONE

Runway Information

Runway 8/26

Dimensions: 4955 x 100 ft. / 1510 x 30 m
Surface: asphalt, in fair condition
Weight bearing capacity: 
Single wheel: 12.5
Runway edge lights: medium intensity
RUNWAY 8  RUNWAY 26
Latitude: 33-55.356430N33-55.349927N
Longitude: 116-51.548577W116-50.568532W
Elevation: 2222.4 ft.2103.8 ft.
Traffic pattern: leftright
Markings: basic, in fair conditionbasic, in fair condition
Visual slope indicator: 2-light PAPI on left (3.50 degrees glide path)
Touchdown point: yes, no lightsyes, no lights

Airport Ownership and Management from official FAA records

Ownership: Publicly-owned
Owner: CITY OF BANNING
P.O. BOX 998
BANNING, CA 92220
Phone (951) 922-3105
Manager: CARL SZOYKA
176 EAST LINCOLN STREET, PO BOX 998
BANNING, CA 92220-0998
Phone 951-922-3286

Airport Operational Statistics

Aircraft based on the field: 16
Single engine airplanes: 13
Multi engine airplanes: 2
Helicopters: 1
    
Aircraft operations: avg 109/week *
75% transient general aviation
25% local general aviation
* for 12-month period ending 31 December 2018

Additional Remarks

NO INTERSECTION TAKEOFFS TO THE WEST.
RY 08/26 NO STRAIGHT-IN LANDINGS.
RWY 26 AFTER TAKEOFF AVOID OVERFLYING HOUSES 4 MILES WEST.
FOR CD CTC LOS ANGELES ARTCC AT 661-575-2079.

Instrument Procedures

There are no published instrument procedures at KBNG.

Some nearby airports with instrument procedures:

KHMT - Hemet-Ryan Airport (14 nm SW)
KREI - Redlands Municipal Airport (18 nm NW)
KPSP - Palm Springs International Airport (18 nm E)
KRIV - March Air Reserve Base (20 nm W)
L35 - Big Bear City Airport (20 nm N)
 
Loc | Ops | Rwys | IFR | FBO | Links
Com | Nav | Svcs | Stats | Notes

San Bernardino International Airport Authority
 
Area around KBNG (Banning Municipal Airport)
 
Road maps at: MapQuest Bing Google
 
Aerial photo
WARNING: Photo may not be current or correct
Aerial photo of KBNG (Banning Municipal Airport)
Photo taken 30-Oct-2013
looking southwest.

Do you have a better or more recent aerial photo of Banning Municipal Airport that you would like to share? If so, please send us your photo.

 
Sectional chart

 
Airport distance calculator
Flying to Banning Municipal Airport? Find the distance to fly.

From to KBNG

Sunrise and sunset
Times for 27-Sep-2020
 Local
(UTC-7)
 Zulu
(UTC)
Morning civil twilight06:1613:16
Sunrise06:4113:41
Sunset18:3501:35
Evening civil twilight19:0002:00

Current date and time
Zulu (UTC)  27-Sep-2020 09:09:59
Local (UTC-7)  27-Sep-2020 02:09:59
 
METAR
KHMT 
14nm SW 
270855Z AUTO 00000KT 10SM CLR 15/13 A2991 RMK AO2 T01460127
KPSP 
19nm E 
270853Z AUTO 33007KT 10SM CLR 28/11 A2981 RMK AO2 SLP090 T02830111 51003
KL35 
20nm N 
270855Z AUTO 00000KT 10SM CLR 05/M04 A3023 RMK AO2
KRIV 
21nm W 
270858Z AUTO 00000KT 10SM CLR 16/13 A2990 RMK AO2 SLP112 T01560129 55001 PWINO $
KSBD 
22nm NW 
270900Z AUTO 00000KT 10SM CLR 20/12 A2990 RMK AO2 T01950120
KF70 
25nm SW 
270855Z AUTO 00000KT 10SM CLR 16/14 A2991 RMK AO1
TAF
KPSP 
19nm E 
270520Z 2706/2806 VRB04KT P6SM SKC FM271700 12006KT P6SM SKC FM280100 34007KT P6SM SKC
KRIV 
21nm W 
270400Z 2704/2810 VRB04KT 9999 FEW280 QNH2988INS BECMG 2718/2719 31009KT 9999 SCT280 QNH2982INS TEMPO 2722/2801 31012G18KT BECMG 2803/2804 34009KT 9999 SKC QNH2985INS TX34/2722Z TN12/2713Z
KSBD 
22nm NW 
270520Z 2706/2806 VRB04KT P6SM SKC FM272100 25008KT 6SM HZ SKC FM280300 VRB05KT P6SM SKC
NOTAMs
Click for the latest NOTAMs
NOTAMs are issued by the DoD/FAA and will open in a separate window not controlled by AirNav.

 

 
 

FBO, Fuel Providers, and Aircraft Ground Support

  
 Business Name 
 
 Contact 
 
 Services / Description 
 
Fuel Prices
 
Comments
  
City of Banning 951-922-3320
no information available

If you are affiliated with City of Banning and would like to show here your services, contact info, web link, logo, and more, click here
100LL
PS $3.52 
 Updated 24-Sep-2020
 
   2 read write
PS=Pump service
Update Fuel Prices
 

Would you like to see your business listed on this page?

 If your business provides an interesting product or service to pilots, flight crews, aircraft, or users of the Banning Municipal Airport, you should consider listing it here.  To start the listing process, click on the button below
 
Add a business
 

Other Pages about Banning Municipal Airport

www.ci.banning.ca.us/...
 
Update a link
 
Copyright © AirNav, LLC. All rights reserved. Privacy Policy  Contact